Find Kosmos-2330

NORAD ID: 23792 Int'l Des: 1996-009 Owner: VKS Country: RU operational
LEOCIRCULARPOLAR

Live Position

Loading 3D Globe...

About Kosmos-2330

Description loading...

Upcoming Passes

Passes for default location (London). Set your location on the main map for personalized predictions.

Altitude History

Loading altitude history...

Two-Line Element Set

1 23792U 96009F 26111.48562003 .00000036 00000-0 14427-3 0 9996
2 23792 82.5857 19.9882 0010820 202.1695 157.8929 12.60975728388493
Epoch: Apr 21, 2026 • Age: 15 hours

Current Status

Altitude 1436.1 km
Velocity 7.15 km/s
Sub-Earth Point -61.22°S, 30.88°W
Launch Date Feb 19, 1996
Age 30.1 years
Type other

Technical Details

Classification Payload
Mass 225.00 kg
Dry Mass 225.00 kg
Total Mass 225.00 kg
Length 1.60 m
Diameter 0.80 m
Span 7.00 m
Shape Cyl + Ant
Manufacturer NPOPMR
Bus Type Strela-3
Phase Status In Orbit
Owner/State VKS/RU

Most Searched